Todos
Maitland Airport (Maitland South Australia) YMLD Condiciones meteorológicas
There is no TAF data available at YMLD or any nearby airports.
There is no METAR data available at YMLD. Showing METAR data for YMIN (26 mi SO).
Historial METAR XML reciente (no hay datos para YMLD)
| Date | Time (ACST) | Flight Rules | Wind Dir. | Speed | Type | Height AGL (ft) | Visibility | Temp (°C) | Temp (°F) | Dew Point (°C) | Dew Point (°F) | Rel. Humid. | Pressure | Density Altitude | Remarks |
|---|---|---|---|---|---|---|---|---|---|---|---|---|---|---|---|
| 05-sep | 04:30AM | n/a | 280° | 20 kt | Missing | 14° | 57° | 10° | 50° | 77% | 1009 mb | 116 ft | |||
| 05-sep | 03:38AM | n/a | 300° | 19 kt | Missing | 14° | 57° | 12° | 53° | 88% | 1009 mb | 116 ft | Wind gusting to 29 KT | ||
| 05-sep | 02:30AM | n/a | 320° | 13 kt | Missing | 15° | 59° | 13° | 55° | 88% | 1008 mb | 266 ft | |||
| 05-sep | 01:30AM | n/a | 300° | 10 kt | Missing | 15° | 59° | 13° | 55° | 88% | 1009 mb | 236 ft | |||
| 05-sep | 12:30AM | n/a | 330° | 10 kt | Missing | 15° | 59° | 13° | 55° | 88% | 1009 mb | 236 ft | |||
| gap in available data | |||||||||||||||
| 04-sep | 11:00PM | n/a | 320° | 11 kt | Missing | 15° | 59° | 13° | 55° | 88% | 1009 mb | 236 ft | |||
| 04-sep | 10:30PM | n/a | 340° | 11 kt | Missing | 15° | 59° | 13° | 55° | 88% | 1009 mb | 236 ft | |||
| 04-sep | 09:30PM | n/a | 350° | 11 kt | Missing | 16° | 60° | 13° | 55° | 82% | 1008 mb | 386 ft | |||
| 04-sep | 08:30PM | n/a | 360° | 14 kt | Missing | 16° | 60° | 13° | 55° | 82% | 1008 mb | 386 ft | |||
| 04-sep | 07:30PM | n/a | 350° | 14 kt | Missing | 17° | 62° | 13° | 55° | 77% | 1008 mb | 506 ft | |||
| 04-sep | 06:30PM | n/a | 360° | 13 kt | Missing | 17° | 62° | 13° | 55° | 77% | 1008 mb | 506 ft | |||
| 04-sep | 05:30PM | n/a | 10° | 9 kt | Missing | 17° | 62° | 14° | 57° | 82% | 1007 mb | 535 ft | |||
| 04-sep | 04:30PM | n/a | 10° | 11 kt | Missing | 19° | 66° | 15° | 59° | 78% | 1008 mb | 746 ft | |||
| 04-sep | 03:30PM | n/a | 20° | 12 kt | Missing | 19° | 66° | 15° | 59° | 78% | 1008 mb | 746 ft | |||
| 04-sep | 02:30PM | n/a | 10° | 14 kt | Missing | 20° | 68° | 14° | 57° | 68% | 1009 mb | 836 ft | |||
| gap in available data | |||||||||||||||
| 04-sep | 01:00PM | n/a | 30° | 15 kt | Missing | 17° | 62° | 13° | 55° | 77% | 1011 mb | 417 ft | |||
| 04-sep | 12:30PM | n/a | 40° | 14 kt | Missing | 17° | 62° | 13° | 55° | 77% | 1011 mb | 417 ft | |||
| 04-sep | 11:36AM | n/a | 40° | 9 kt | Missing | 15° | 59° | 13° | 55° | 88% | 1013 mb | 118 ft | |||
| 04-sep | 10:30AM | n/a | 10° | 9 kt | Missing | 13° | 55° | 11° | 51° | 88% | 1014 mb | -151 ft | |||
| 04-sep | 09:30AM | n/a | 10° | 16 kt | Missing | 14° | 57° | 11° | 51° | 82% | 1015 mb | -61 ft | |||
| 04-sep | 08:30AM | n/a | 20° | 9 kt | Missing | 14° | 57° | 11° | 51° | 82% | 1015 mb | -61 ft | |||
| 04-sep | 07:30AM | n/a | 20° | 9 kt | Missing | 13° | 55° | 11° | 51° | 88% | 1015 mb | -181 ft | |||
| 04-sep | 06:30AM | n/a | 40° | 9 kt | Missing | 12° | 53° | 11° | 51° | 94% | 1015 mb | -301 ft | |||
| 04-sep | 05:30AM | n/a | 50° | 13 kt | Missing | 12° | 53° | 11° | 51° | 94% | 1015 mb | -301 ft | |||
Entrar
| Tu navegador no está contemplado. eleva la categoría de tu navegador |
